Fotos históricas de la Ciudad de Buenos Aires

Fotos ordenas por FECHA

Ord ID Archivo Fecha Título
901 954 afsdp36.jpg 00/00/1949 Terrenos de la Estación Ferroviaria de Casa Amarilla.
902 955 afsdp37.jpg 00/00/1949 Apertura de la Avda. 9 de julio.
903 956 afsdp38.jpg 00/00/1949 Apertura de la Avda. 9 de julio.
904 957 afsdp39.jpg 00/00/1949 Apertura de la Avda. 9 de julio.
905 252 web0002.jpg 00/00/1950 Pendiente de la calle Suipacha
906 933 afsdp01.jpg 00/00/1950 Teatro Colón.
907 958 afsdp40.jpg 00/00/1950 Hospital Santojani
908 1038 barr003.jpg 00/00/1950 Residencia Unzué 1914-1968, Cerrito 941
909 1039 barr004.jpg 00/00/1950 Quinta Loreley - 1890-1968
910 959 afsdp41.jpg 00/00/1951 Apertura de la Avda. 9 de julio.
911 960 afsdp42.jpg 00/00/1951 Avda. 9 de julio recién terminada.
912 961 afsdp44.jpg 00/00/1951 Plaza de Mayo.
913 1163 bak114.jpg 01/01/1951 Microcentro porteño - vista al SE
914 1164 bak115.jpg 01/01/1951 Explanada de Casa de Gobierno
915 1165 bak116.jpg 01/01/1951 Estatua Juan de Garay
916 1166 bak118.jpg 01/01/1951 Entrada del subte A
917 1167 bak119.jpg 01/01/1951 Banco de la Nación Argentina
918 1168 bak120.jpg 01/01/1951 Surtidor de nafta en la Plaza de mayo
919 1169 bak121.jpg 01/01/1951 Pirámide de mayo
920 1170 bak122.jpg 01/01/1951 Catedral
921 1171 bak123.jpg 01/01/1951 Catedral
922 1172 bak124.jpg 01/01/1951 Plaza de mayo - Cabildo - Consejo deliberante
923 1173 bak125.jpg 01/01/1951 Plaza de mayo
924 1174 bak126.jpg 01/01/1951 Cabildo y Consejo deliberante
925 1175 bak127.jpg 01/01/1951 Puesto callejeros cercanos al Cabildo
926 1176 bak128.jpg 01/01/1951 Café en la vereda y lustrabotas
927 1177 bak129.jpg 01/01/1951 Antiguo Ministerio de Obras Públicas (MOP)
928 1178 bak130.jpg 01/01/1951 Palacio Barolo y Congreso Nacional
929 1179 bak131.jpg 01/01/1951 Avda 9 de julio y Obelisco
930 1180 bak132.jpg 01/01/1951 El obelisco
931 1181 bak133.jpg 01/01/1951 Congreso Nacional
932 1182 bak134.jpg 01/01/1951 Congreso Nacional
933 1183 bak135.jpg 01/01/1951 Congreso Nacional
934 1184 bak137.jpg 01/01/1951 Avda de Mayo y edifcio Barolo
935 1185 bak138.jpg 01/01/1951 El Pensador de Rodin
936 1186 bak139.jpg 01/01/1951 Monumento a Roca
937 1187 bak140.jpg 01/01/1951 Hito inicial - kilómetro 0
938 1188 bak141.jpg 01/01/1951 Torre del Consejo Deliberante
939 1189 bak144.jpg 01/01/1951 Iglesia San Ignacio
940 1190 bak145.jpg 01/01/1951 Casa del Virrey Liniers
941 1191 bak146.jpg 01/01/1951 Casa de dos pisos
942 1192 bak147.jpg 01/01/1951 Calle céntrica
943 1193 bak148.jpg 01/01/1951 Iglesia y Convento Santo Domingo
944 1194 bak149.jpg 01/01/1951 Parroquia San Pedro González Telmo
945 1195 bak150.jpg 01/01/1951 Esquina sin ochava de la calle Balcarce
946 1196 bak151.jpg 01/01/1951 Iglesia ortodoxa rusa
947 1197 bak152.jpg 01/01/1951 Museo de Historia - Parque Lezama
948 1198 bak153.jpg 01/01/1951 Edificio de Caseros y Defensa
949 1199 bak156.jpg 01/01/1951 Parque Lezama - Alto
950 1200 bak157.jpg 01/01/1951 Vuelta de Rocha
951 1201 bak158.jpg 01/01/1951 Hall de la estación de trenes Constitución
952 1202 bak159.jpg 01/01/1951 Paradas de colectivo en Constitución
953 1203 bak160.jpg 01/01/1951 Vías de Constitución
954 1204 bak161.jpg 01/01/1951 Andenes en la estación Constitución
955 1205 bak162.jpg 01/01/1951 Calle Montes de Oca
956 1206 bak163.jpg 01/01/1951 Iglesia Santa Felicitas
957 1207 bak164.jpg 01/01/1951 Suipacha y Diagonal Norte hacia el río
958 1208 bak165.jpg 01/01/1951 Escultura Roque Sáenz Peña
959 1209 bak166.jpg 01/01/1951 Calle Florida 300-400
960 1210 bak167.jpg 01/01/1951 Edificio Lipsia
961 1211 bak168.jpg 01/01/1951 Florida y Córdoba - hacia el sur
962 1212 bak169.jpg 01/01/1951 Plaza San Martín
963 1213 bak170.jpg 01/01/1951 Iglesia Santa Catalina de Siena
964 1214 bak171.jpg 01/01/1951 Palacio Paz - Círculo militar
965 1215 bak172.jpg 01/01/1951 Palacio San Martín - Cancillería
966 1216 bak173.jpg 01/01/1951 Escuela Domingo Fausitino Sarmiento - 5 esquinas
967 1217 bak174.jpg 01/01/1951 Plaza San Martín - Monumento
968 1218 bak175.jpg 01/01/1951 Monumento a Carlos Pellegrini
969 1219 bak176.jpg 01/01/1951 Embajada de Francia - Embajada de Brasil
970 1220 bak177.jpg 01/01/1951 Museo Larreta - Patio interno
971 1221 bak178.jpg 01/01/1951 Plaza Vicente López - Arboleda
972 1222 bak180.jpg 01/01/1951 Florería en la calle
973 1223 bak181.jpg 01/01/1951 Calle Santa Fe - Hacia el este
974 1224 bak182.jpg 01/01/1951 Teatro Colón
975 1225 bak183.jpg 01/01/1951 Escuela Roca
976 1226 bak185.jpg 01/01/1951 Palacio de Tribunales
977 1227 bak186.jpg 01/01/1951 Talcahuano casi Córdoba
978 1228 bak187.jpg 01/01/1951 Iglesia del Pilar
979 1229 bak188.jpg 01/01/1951 Monumento ecuestre a Carlos María de Alvear
980 1230 bak189.jpg 01/01/1951 Ombú de la subida de Alvear en Recoleta
981 1231 bak190.jpg 01/01/1951 Murrallón de Recoleta - las 8 estatuas
982 1232 bak191.jpg 01/01/1951 Estatua - Tres mujeres
983 1233 bak192.jpg 01/01/1951 Facultad de Derecho
984 1234 bak193.jpg 01/01/1951 Plaza y Asilo
985 1235 bak194.jpg 01/01/1951 Plaza Francia
986 1236 bak195.jpg 01/01/1951 Escalera peatonal - La Isla
987 1237 bak196.jpg 01/01/1951 Maceta en alto - La isla
988 1238 bak197.jpg 01/01/1951 Edificio Automóvil club argentino
989 1239 bak198.jpg 01/01/1951 Palacio Bosch - Embajada de EE.UU.
990 1240 bak199.jpg 01/01/1951 Edificio Racionalista
991 1241 bak200.jpg 01/01/1951 Entrada del Museo de arte decorativo
992 228 aaaa.jpg 00/00/1952 Apertura de la Diagonal Norte
993 1252 aepile1.jpg 01/01/1952 Pileta de Aeroparque
994 1253 aepile2.jpg 01/01/1952 Pileta de Aeroparque
995 1254 aepile3.jpg 01/01/1952 Pileta de Aeroparque
996 1255 aepile4.jpg 01/01/1952 Pileta de Aeroparque
997 1256 aepile5.jpg 01/01/1952 Pileta de Aeroparque
998 1257 aepile6.jpg 01/01/1952 Pileta de Aeroparque
999 1258 aepile7.jpg 01/01/1952 Pileta de Aeroparque
1000 1259 aepile8.jpg 01/01/1952 Pileta de Aeroparque

Cantidad total de FOTOS de la consulta = 1247

- [ 1 ] - [ 2 ] - [ 3 ] - [ 4 ] - [ 5 ] - [ 6 ] - [ 7 ] - [ 8 ] - [ 9 ] - [ 10 ] - [ 11 ] - [ 12 ] - [ 13 ] -

[ Página Anterior ] - [ Página Siguiente ]

Catálogo espacial y temporal de fotos antiguas
de la Ciudad de Buenos Aires
J. Simón Tagtachian - jst@cienciayfe.com.ar
www.cienciayfe.com.ar/buenosaires